Total_Precipitation_Accumulation
0.01 0.01 0.01 0.03 0.09 0.20 0.28 0.22 0.22 0.29 0.33 0.33 0.38 0.41 0.46 0.58 1.03 1.92 1.12 0.60 0.44 0.42 0.41 0.27 0.27 0.27 0.30 0.40 0.47 0.50 0.50 0.50 0.47 0.47 0.48 0.52 0.53 0.57 0.59 0.61 0.75 0.94 1.12 1.17 1.20 1.30 1.29 1.24 1.31
0.02 0.02 0.03 0.05 0.13 0.31 0.31 0.26 0.30 0.33 0.40 0.38 0.44 0.47 0.50 0.53 0.50 0.55 0.58 0.55 0.42 0.38 0.39 0.27 0.30 0.35 0.35 0.39 0.45 0.55 0.53 0.53 0.51 0.48 0.48 0.52 0.56 0.62 0.73 0.83 0.95 1.07 1.22 1.31 1.45 1.60 1.49 1.32 1.27
0.02 0.02 0.05 0.07 0.11 0.24 0.31 0.29 0.35 0.37 0.38 0.46 0.61 0.73 0.75 0.70 0.63 0.59 0.54 0.44 0.37 0.30 0.32 0.36 0.39 0.41 0.44 0.43 0.44 0.53 0.60 0.62 0.64 0.64 0.59 0.60 0.63 0.65 0.69 0.82 0.94 1.00 1.06 1.19 1.29 1.36 1.38 1.29 1.23
0.03 0.03 0.05 0.09 0.11 0.16 0.27 0.38 0.43 0.47 0.45 0.43 0.55 0.94 0.88 0.67 0.67 0.69 0.52 0.43 0.41 0.35 0.30 0.37 0.45 0.45 0.47 0.49 0.50 0.52 0.58 0.68 0.77 0.84 0.79 0.75 0.76 0.76 0.79 0.87 0.90 0.98 1.00 1.06 1.16 1.26 1.29 1.30 1.25
0.03 0.04 0.07 0.10 0.12 0.17 0.26 0.40 0.42 0.46 0.54 0.54 0.63 1.00 0.99 0.80 0.79 0.91 0.80 0.61 0.58 0.55 0.51 0.45 0.49 0.50 0.53 0.56 0.60 0.65 0.66 0.73 0.84 0.92 0.97 0.95 0.89 0.83 0.87 0.97 0.92 0.93 0.98 1.02 1.00 1.03 1.11 1.31 1.37
0.03 0.03 0.08 0.09 0.11 0.21 0.29 0.39 0.40 0.46 0.56 0.68 0.82 1.19 1.47 1.33 1.21 1.30 1.29 0.92 0.79 0.71 0.67 0.67 0.61 0.54 0.60 0.68 0.68 0.74 0.82 0.83 0.90 0.99 1.11 1.06 0.93 0.88 0.92 1.00 1.06 1.08 1.11 1.11 0.99 0.96 1.01 1.19 1.36
0.04 0.06 0.10 0.08 0.13 0.26 0.33 0.42 0.45 0.56 0.76 0.88 1.04 1.51 1.70 1.64 1.60 1.44 1.53 1.30 0.97 0.92 0.91 0.92 0.75 0.69 0.75 0.87 0.85 0.86 0.89 0.92 0.99 1.12 1.22 1.13 1.03 1.02 1.02 1.06 1.15 1.22 1.21 1.19 1.12 1.11 1.11 1.14 1.27
0.05 0.08 0.07 0.08 0.15 0.32 0.42 0.48 0.52 0.63 0.90 1.06 1.15 1.62 1.82 1.73 1.52 1.45 1.54 1.58 1.34 1.27 1.26 1.19 1.17 1.13 1.02 1.05 1.17 1.13 1.09 1.06 1.03 1.06 1.18 1.15 1.07 1.04 1.12 1.10 1.20 1.28 1.30 1.30 1.31 1.39 1.36 1.30 1.29
0.03 0.11 0.09 0.08 0.15 0.33 0.47 0.56 0.63 0.66 0.87 1.10 1.03 1.20 1.61 1.41 1.50 1.78 1.72 1.78 1.71 1.66 1.61 1.41 1.46 1.47 1.33 1.30 1.25 1.38 1.35 1.28 1.20 1.18 1.21 1.19 1.24 1.30 1.32 1.27 1.49 1.49 1.56 1.69 1.69 1.63 1.56 1.53 1.46
0.03 0.08 0.08 0.07 0.11 0.26 0.43 0.58 0.74 0.80 0.86 1.07 1.13 1.13 1.38 1.49 1.53 1.79 2.09 1.99 1.97 1.82 1.76 1.68 1.57 1.50 1.47 1.38 1.46 1.60 1.55 1.55 1.42 1.57 1.50 1.54 1.85 2.00 1.73 1.90 2.07 2.09 2.09 2.14 2.06 1.95 1.87 1.71 1.42
0.03 0.05 0.07 0.09 0.14 0.26 0.41 0.53 0.60 0.75 0.92 1.04 1.22 1.27 1.37 1.64 1.85 1.92 2.30 2.27 2.21 2.16 1.98 2.03 1.90 1.75 1.92 1.99 1.88 1.87 1.92 2.04 1.90 2.02 2.05 2.15 2.30 2.31 2.28 2.40 2.34 2.43 2.49 2.43 2.37 2.14 1.84 1.69 1.59
0.03 0.05 0.08 0.13 0.18 0.26 0.36 0.45 0.63 0.82 1.20 1.24 1.53 1.81 1.86 1.82 2.08 2.13 2.46 2.48 2.61 2.79 2.60 2.48 2.45 2.32 2.44 2.68 2.48 2.19 2.08 2.17 2.23 2.42 2.33 2.63 2.77 2.73 2.68 2.75 2.67 2.66 2.72 2.81 2.61 2.45 2.23 2.09 1.93
0.05 0.07 0.08 0.13 0.21 0.30 0.38 0.52 0.72 0.96 1.13 1.22 1.63 2.07 2.20 2.05 1.94 2.12 2.78 2.67 2.71 2.96 3.03 2.84 2.80 2.74 2.93 3.13 2.99 2.74 2.67 2.45 2.40 2.70 2.73 2.87 3.02 2.99 3.06 3.00 2.98 2.78 2.75 2.77 2.68 2.52 2.52 2.43 2.17
0.07 0.08 0.11 0.12 0.19 0.29 0.41 0.53 0.71 0.92 0.85 0.99 1.33 1.67 1.86 2.02 2.04 2.21 2.56 2.69 2.67 2.85 3.03 3.21 3.22 3.16 3.01 3.11 3.12 2.91 2.66 2.76 2.64 2.67 2.79 2.80 3.01 3.28 3.33 3.30 3.26 3.18 3.09 3.12 2.93 2.77 2.92 2.77 2.62
0.05 0.09 0.14 0.15 0.19 0.30 0.39 0.59 0.82 1.05 1.00 1.09 1.28 1.43 1.72 1.97 2.29 2.52 2.65 2.65 2.68 2.77 2.87 3.03 3.19 3.36 3.20 3.17 3.19 3.03 2.82 2.81 2.88 2.97 3.17 3.01 2.99 3.31 3.46 3.61 3.55 3.53 3.45 3.44 3.35 3.28 3.35 3.03 2.84
0.08 0.12 0.22 0.24 0.21 0.24 0.39 0.78 1.04 1.09 1.15 1.21 1.26 1.38 1.54 1.89 2.21 2.36 2.32 2.33 2.29 2.37 2.65 2.90 3.10 3.32 3.49 3.53 3.63 3.39 3.41 3.42 3.34 3.19 3.21 3.15 3.15 3.36 3.69 3.82 3.84 3.90 3.82 3.87 3.91 3.79 3.63 3.48 3.22
0.13 0.17 0.24 0.32 0.26 0.24 0.42 0.84 1.07 1.03 1.17 1.25 1.26 1.28 1.38 1.63 1.90 2.05 2.07 2.04 2.06 2.08 2.55 2.91 3.29 3.67 3.86 4.04 4.26 4.18 4.21 4.04 3.86 3.76 3.62 3.68 3.82 3.84 4.02 4.13 4.21 4.26 4.31 4.32 4.10 4.23 4.01 3.93 3.73
0.20 0.20 0.25 0.26 0.26 0.27 0.42 0.68 0.88 1.00 1.12 1.23 1.25 1.26 1.24 1.47 1.70 1.89 2.03 2.16 2.10 2.24 2.61 3.00 3.32 3.92 4.43 4.48 4.65 4.73 4.91 4.86 4.73 4.72 4.50 4.27 4.37 4.48 4.65 4.55 4.58 4.63 4.74 4.63 4.61 4.68 4.44 4.12 4.05
0.19 0.23 0.29 0.25 0.23 0.30 0.40 0.59 0.84 0.98 1.17 1.32 1.31 1.33 1.43 1.53 1.76 1.97 2.15 2.36 2.62 2.84 3.00 3.24 3.50 3.90 4.18 4.55 4.85 5.06 5.26 5.48 5.55 5.45 5.35 5.32 5.32 5.44 5.52 5.26 5.25 5.15 5.03 4.82 4.77 4.66 4.43 4.17 4.15
0.13 0.19 0.26 0.28 0.27 0.29 0.43 0.62 0.85 0.96 1.11 1.30 1.37 1.46 1.48 1.58 1.76 2.10 2.43 2.87 3.09 3.22 3.30 3.52 3.87 4.20 4.39 4.77 5.29 5.76 5.96 6.07 6.07 6.03 6.12 6.16 6.16 6.32 6.37 6.34 6.08 5.87 5.59 5.09 4.74 4.62 4.39 4.01 4.14
0.10 0.15 0.18 0.27 0.33 0.38 0.55 0.93 1.15 1.14 1.27 1.41 1.42 1.58 1.60 1.66 1.95 2.23 2.62 2.94 3.07 3.20 3.33 3.50 3.99 4.46 4.93 5.39 5.96 6.44 6.75 6.76 6.59 6.28 6.34 6.44 6.28 6.39 6.58 6.56 6.33 5.98 5.41 4.84 4.70 4.66 4.51 4.23 4.15
0.10 0.12 0.15 0.21 0.35 0.50 0.55 1.14 1.53 1.60 1.63 1.55 1.54 1.63 1.60 1.64 1.90 2.25 2.51 2.80 2.94 3.07 3.31 3.54 3.98 4.69 5.21 5.54 6.17 6.81 7.06 7.24 7.29 7.05 6.72 6.51 6.25 6.13 6.07 5.91 5.52 5.15 4.79 4.49 4.34 4.39 4.30 4.28 4.08
0.10 0.10 0.16 0.19 0.27 0.45 0.49 0.95 1.70 1.84 1.95 1.77 1.69 1.70 1.54 1.50 1.71 2.07 2.25 2.52 2.85 2.98 3.09 3.33 3.90 4.56 5.30 5.92 6.41 7.00 7.49 7.70 7.60 7.15 6.69 6.15 5.79 5.34 4.90 4.56 4.35 4.29 4.16 3.96 3.82 3.83 3.74 3.56 3.46
0.10 0.14 0.23 0.28 0.39 0.66 0.62 0.93 1.80 2.11 2.25 2.28 1.95 1.73 1.56 1.46 1.55 1.73 1.95 2.21 2.55 2.66 2.90 3.20 3.65 4.38 5.11 5.70 6.25 6.74 7.15 7.26 6.93 6.39 5.85 5.50 5.10 4.55 4.00 3.71 3.51 3.41 3.27 3.09 2.98 2.98 3.00 3.09 3.14
0.12 0.27 0.58 0.79 0.89 0.89 0.69 1.01 1.81 2.01 1.85 1.87 1.92 1.95 1.72 1.43 1.44 1.67 1.84 2.13 2.34 2.44 2.71 3.07 3.60 4.26 4.67 5.14 5.66 5.99 6.19 6.32 6.28 5.94 5.45 5.07 4.59 4.11 3.61 3.19 2.95 2.71 2.54 2.47 2.50 2.49 2.47 2.60 2.72
0.13 0.27 0.72 1.01 1.03 1.03 1.04 1.50 2.12 1.96 1.60 1.56 1.68 1.80 1.62 1.52 1.57 1.81 1.96 2.17 2.38 2.45 2.62 2.95 3.39 3.84 4.07 4.28 4.71 5.06 5.18 5.22 5.08 4.85 4.45 4.14 3.81 3.48 3.17 2.74 2.40 2.19 2.06 1.96 2.07 2.09 2.12 2.20 2.30
0.18 0.24 0.37 0.55 0.65 1.01 1.49 2.02 2.58 2.39 1.78 1.54 1.59 1.60 1.58 1.60 1.64 1.84 2.01 2.14 2.31 2.37 2.53 2.68 2.95 3.16 3.38 3.56 3.78 3.97 3.98 3.89 3.75 3.54 3.27 3.08 2.88 2.59 2.45 2.24 2.06 1.94 1.88 1.88 1.90 1.86 1.86 1.98 2.08
0.19 0.28 0.38 0.64 0.98 1.36 1.68 2.37 3.18 2.98 2.29 1.84 1.74 1.69 1.63 1.61 1.66 1.82 1.91 1.99 2.06 2.02 2.12 2.24 2.46 2.62 2.81 2.91 2.93 2.86 2.86 2.79 2.62 2.42 2.32 2.18 2.00 1.90 1.90 1.84 1.84 1.81 1.75 1.80 1.85 1.75 1.74 1.87 1.91
0.24 0.31 0.46 0.62 0.73 1.30 1.91 2.77 3.00 3.03 2.71 2.31 1.89 1.66 1.59 1.56 1.57 1.63 1.69 1.73 1.74 1.69 1.70 1.80 1.98 2.21 2.34 2.36 2.40 2.34 2.25 2.08 1.96 1.82 1.75 1.68 1.61 1.60 1.60 1.63 1.67 1.70 1.69 1.71 1.72 1.62 1.62 1.69 1.85
0.26 0.36 0.52 0.83 0.85 1.02 1.65 2.81 2.84 3.07 2.93 2.58 2.20 1.88 1.74 1.66 1.55 1.50 1.49 1.51 1.52 1.51 1.50 1.58 1.66 1.78 1.84 1.92 1.92 1.90 1.84 1.76 1.67 1.58 1.51 1.53 1.53 1.52 1.54 1.54 1.53 1.59 1.68 1.72 1.65 1.54 1.51 1.60 1.73